Hourly Data Report for May 26, 2012

All times are specified in Local Standard Time (LST). Add 1 hour to adjust for Daylight Saving Time where and when it is observed.

LONDON A
ONTARIO

43°01'59.000" N
81°09'04.000" W
278.00 m
6144473
71623
YXU

Download Data

Hourly Data (May 2012)
Hourly Data Report for May 26, 2012
Temp Definition
°C
Dew Point Temp Definition
°C
Rel Hum Definition
%
Wind Dir Definition
10's deg

Wind Spd Definition
km/h
Visibility Definition
km
Stn Press Definition
kPa
Hmdx Definition


Wind Chill Definition


Weather Definition


TIME
00:00 Legend Double Dagger 16.7 14.4 86 30 4 10.0 98.70     LegendNANA
01:00 Legend Double Dagger 17.2 12.8 75   0 10.0 98.70     Mostly Cloudy
02:00 Legend Double Dagger 16.9 11.0 68 8 8 10.0 98.71     LegendNANA
03:00 Legend Double Dagger 15.9 10.7 71 35 11 10.0 98.76     LegendNANA
04:00 Legend Double Dagger 16.2 9.7 65 5 6 10.0 98.84     Mostly Cloudy
05:00 Legend Double Dagger 15.7 10.1 69 4 6 10.0 98.92     LegendNANA
06:00 Legend Double Dagger 16.5 9.3 62 6 7 10.0 98.98     LegendNANA
07:00 Legend Double Dagger 18.0 11.2 64 0 5 10.0 99.04     Mostly Cloudy
08:00 Legend Double Dagger 20.3 9.4 49 8 14 10.0 99.00     LegendNANA
09:00 Legend Double Dagger 22.1 10.7 48 6 8 10.0 99.06     LegendNANA
10:00 Legend Double Dagger 23.3 13.3 53 33 8 10.0 99.09 26   Mostly Cloudy
11:00 Legend Double Dagger 23.7 11.2 45 0 9 10.0 99.08 26   LegendNANA
12:00 Legend Double Dagger 23.6 11.5 46 1 9 10.0 99.02 26   LegendNANA
13:00 Legend Double Dagger 24.8 12.9 47 1 10 10.0 98.96 28   Mostly Cloudy
14:00 Legend Double Dagger 25.6 12.3 43 34 9 10.0 98.92 28   LegendNANA
15:00 Legend Double Dagger 24.8 13.9 50 1 12 10.0 98.84 28   LegendNANA
16:00 Legend Double Dagger 25.9 12.6 43 35 10 10.0 98.79 28   Mostly Cloudy
17:00 Legend Double Dagger 25.3 13.0 46 34 4 10.0 98.78 28   LegendNANA
18:00 Legend Double Dagger 23.7 14.3 55 35 8 10.0 98.80 27   LegendNANA
19:00 Legend Double Dagger 22.4 12.2 52 32 15 10.0 98.90 25   Mostly Cloudy
20:00 Legend Double Dagger 20.3 11.6 57 33 8 10.0 98.95     LegendNANA
21:00 Legend Double Dagger 19.0 11.4 61 30 5 10.0 98.96     LegendNANA
22:00 Legend Double Dagger 16.8 11.6 71 35 7 10.0 98.91     Cloudy
23:00 Legend Double Dagger 17.0 11.6 70 9 9 10.0 98.85     LegendNANA

Notes on Data Quality.

Legend

  • E = Estimated
  • M = Missing
  • NA = Not Available
  • ‡ = Partner data that is not subject to review by the National Climate Archives
Date modified: